This demonstration page uses our WeatherBlox Daily Observations layout. Learn more.

Left ArrowRight Arrow

39.08367, -84.50855

Hourly Observations for June 20, 2020

Temp ( °F °C ) Dew Point ( °F °C ) Humidity (%) Winds ( mph kmh ) Pressure ( in mb ) Visibility ( mi km ) Precip ( " mm )
12:53 am 00:53 Clear 66 18.9 63 17.2 90 90 NE 7 11 30.03 1017 10 16.0934 0 0
1:53 am 01:53 Clear 65 18.3 63 17.2 93 93 S 5 7 30.01 1016 10 16.0934 0 0
2:53 am 02:53 Clear 65 18.3 63 17.2 93 93 Calm 30 1016 8 12.87472 0 0
3:53 am 03:53 Clear with Mist and Fog 64 17.8 62 16.7 93 93 Calm 30 1016 6 9.65604 0 0
4:53 am 04:53 Clear 64 17.8 62 16.7 93 93 Calm 30.02 1017 7 11.26538 0 0
5:46 am 05:46 Clear with Mist and Fog 62 16.7 61 16.1 96 96 Calm 30.04 1017 1.75 2.816345 0 0
5:53 am 05:53 Clear with Mist and Fog 61 16.1 60 15.6 97 97 Calm 30.04 1017 1 1.60934 0 0
6:03 am 06:03 Clear with Mist and Fog 63 17.2 62 16.7 97 97 Calm 30.04 1017 4 6.43736 0 0
6:13 am 06:13 Sunny with Mist and Fog 63 17.2 62 16.7 97 97 Calm 30.04 1017 0.75 1.207005 0 0
6:35 am 06:35 Sunny with Mist and Fog 63 17.2 61 16.1 93 93 Calm 30.05 1018 6 9.65604 0 0
6:53 am 06:53 Sunny with Mist and Fog 63 17.2 62 16.7 97 97 Calm 30.04 1017 6 9.65604 0 0
7:53 am 07:53 Sunny 67 19.4 64 17.8 91 91 Calm 30.04 1017 8 12.87472 0 0
8:53 am 08:53 Sunny 73 22.8 65 18.3 76 76 Calm 30.05 1018 10 16.0934 0 0
9:53 am 09:53 Sunny 79 26.1 66 18.9 65 65 SW 5 7 30.05 1018 10 16.0934 0 0
10:53 am 10:53 Sunny 85 29.4 66 18.9 53 53 WSW 8 13 30.04 1017 10 16.0934 0 0
11:53 am 11:53 Sunny 88 31.1 65 18.3 46 46 W 7 11 30.03 1017 10 16.0934 0 0
12:53 pm 12:53 Partly Cloudy 89 31.7 61 16.1 39 39 VRB 7 11 30.02 1017 10 16.0934 0 0
1:53 pm 13:53 Mostly Sunny 89 31.7 62 16.7 41 41 VRB 7 11 30 1016 10 16.0934 0 0
2:53 pm 14:53 Cloudy 89 31.7 64 17.8 43 43 W 10 17 29.98 1015 10 16.0934 0 0
3:53 pm 15:53 Sunny 90 32.2 64 17.8 42 42 WSW 7 11 29.97 1015 10 16.0934 0 0
4:53 pm 16:53 Partly Cloudy 88 31.1 65 18.3 46 46 S 9 15 29.95 1014 10 16.0934 0 0
5:53 pm 17:53 Mostly Cloudy 88 31.1 65 18.3 46 46 S 7 11 29.92 1013 10 16.0934 0 0
6:53 pm 18:53 Sunny 86 30 65 18.3 49 49 S 8 13 29.91 1013 10 16.0934 0 0
7:53 pm 19:53 Sunny 84 28.9 66 18.9 55 55 S 7 11 29.91 1013 10 16.0934 0 0
8:53 pm 20:53 Mostly Cloudy 80 26.7 68 20 67 67 SW 3 6 29.91 1013 10 16.0934 0 0
9:53 pm 21:53 Mostly Clear 77 25 68 20 74 74 SSW 3 6 29.93 1013 10 16.0934 0 0
10:53 pm 22:53 Clear 72 22.2 67 19.4 84 84 Calm 29.94 1014 10 16.0934 0 0
11:53 pm 23:53 Clear 71 21.7 67 19.4 87 87 Calm 29.95 1014 10 16.0934 0 0

Powered by AerisWeather